Weather in Progress

Russia / Stavropol Krai     44°33′25″N   41°51′47″E
temp.,
°C
wind,
m/s
gust,
m/s
humid.,
%
clouds,
%
prec.,
mm/h
press.,
hPa
HPBL,
m
12 may, wed
wed1200:00+6nne2294100 0.0 101647
03:00+4se119595 0.0 101710
06:00+5s00928 0.0 101842
09:00+11e33753 0.0 1016572
12:00+16e55613 0.0 10151218
15:00+17e66575 0.0 10141209
18:00+15ese510712 0.0 1014605
21:00+10ese228645 0.0 101422
13 may, thu
thu1300:00+9se23900 0.0 101329
03:00+8sse33882 0.0 101328
06:00+9sse33690 0.0 101449
09:00+17ese22540 0.0 1013312
12:00+22ene44565 0.0 1013710
15:00+23e55565 0.0 1012974
18:00+20e48745 0.0 1013326
21:00+15e23885 0.0 101426
14 may, fri
fri1400:00+13se3392100 0.0 101344
03:00+13sse3479100 0.0 101348
06:00+13sse45643 0.0 101361
09:00+22se34510 0.0 1012284
12:00+27e22455 0.0 1011566
15:00+27ene55521 0.0 1011864
18:00+23e47755 0.0 1011242
21:00+17se33862 0.0 101229
15 may, sat
sat1500:00+16sse349138 0.0 101160
03:00+16ssw2273100 0.0 101222
06:00+16sw227329 0.0 101434
09:00+22wnw45755 0.0 1014537
12:00+25nnw44603 0.0 1014968
15:00+25n45635 0.0 10131097
18:00+21wnw4684100 0.8 1014118
21:00+18ssw3590100 4.2 101493
16 may, sun
sun1600:00+15se22885 0.0 101216
03:00+15sse119073 0.0 101212
06:00+16sse2289100 0.6 101262
09:00+21e238021 0.6 1010474
12:00+25e5664100 0.0 10081327
15:00+25e7867100 0.0 10071344
18:00+23e6117312 0.0 1005555
21:00+18e3470100 0.0 100550